Location: Carite
(10.3909°N, 67.0102°W)
Time: 01:59:50
(UTC+00:00)

Cosmos 2346 Rocket - Pass Details

Date: 08 September 2024
Orbit: 935 x 979 km, 82.9° (Epoch: 06 October)

Event Time Altitude Azimuth Distance (km) Brightness Sun altitude
Rises 22:44:10 0° 359° (N) 3,638 7.6 -3.7°
Reaches altitude 10° 22:46:41 10° 0° (N) 2,686 6.9 -4.3°
Maximum altitude 22:52:49 78° 86° (E) 971 4.4 -5.8°
Drops below altitude 10° 22:58:53 10° 173° (S) 2,657 6.7 -7.2°
Sets 23:01:21 0° 174° (S) 3,596 7.3 -7.9°
